Simultaneous Nadir Overpasses (SNOs) Predictions

Prediction of SNOs between AQUA and METOP-C Satellite Orbit:

Table of predicted SNOs for the next 14.0 days since TLE Epoch: 7/5/2025
Index Date (AQUA) Time (AQUA) Lat,Lon (AQUA) SZA (AQUA ) Date (METOP-C) Time (METOP-C) Lat,Lon (METOP-C) SZA (METOP-C ) Distance(km) Time Diff (sec)
1 07/05/2025 07:42:53 -76.66,-112.55 126.16 07/05/2025 07:41:41 -76.69,-112.53 126.13 3.06 72
2 07/05/2025 08:32:13 76.74, 54.86 53.92 07/05/2025 08:32:20 76.73, 54.98 53.92 2.90 7
3 07/07/2025 20:31:03 -76.73, 55.26 125.83 07/07/2025 20:30:36 -76.73, 55.39 125.83 3.31 27
4 07/07/2025 21:20:22 76.75,-137.18 54.21 07/07/2025 21:21:15 76.77,-137.12 54.22 1.92 53
5 07/10/2025 08:29:53 76.70, 55.70 54.45 07/10/2025 08:28:51 76.68, 55.65 54.43 2.56 62
6 07/10/2025 09:19:12 -76.77,-136.86 125.48 07/10/2025 09:19:31 -76.76,-136.71 125.49 3.80 19
7 07/12/2025 21:18:01 76.72,-136.34 54.82 07/12/2025 21:17:45 76.75,-136.31 54.85 3.06 16
8 07/12/2025 22:07:20 -76.79, 31.11 125.12 07/12/2025 22:08:26 -76.79, 31.17 125.11 1.71 66
9 07/15/2025 09:16:50 -76.73,-136.01 124.79 07/15/2025 09:16:01 -76.74,-135.89 124.78 3.25 49
10 07/15/2025 10:06:09 76.77, 31.53 55.25 07/15/2025 10:06:40 76.77, 31.54 55.26 0.41 31
11 07/17/2025 21:15:31 76.36,-134.35 55.27 07/17/2025 21:14:25 76.27,-137.23 55.16 76.53 66
12 07/17/2025 22:04:57 -76.76, 31.95 124.35 07/17/2025 22:04:56 -76.76, 31.96 124.34 0.96 1



Historial Predications of SNOs between AQUA and METOP-C
